[[{"header":{"parameterUnit":"m.s-1","parameterCategory":1,"la1":30.2991,"la2":30.254,"lo1":-89.0895,"lo2":-89.0444,"dx":0.0017,"dy":0.0017,"nx":28,"ny":28,"refTime":"2022-11-03T15:00:00:Z","depth":0,"parameterNumber":2,"parameterNumberName":"U-component_of_WINDS"},"data":[0,0,0,0,0,0,0,0,0,0,0,0,0,0,0,0,0,0,0,0,0,0,0,0,0,0,0,0,0,0,0,0,0,0,0,0,0,0,0,0,0,0,0,0,0,0,0,0,0,0,0,0,0,0,0,0,0,0,-5.5264,-5.5265,0,-5.5322,-5.5322,-5.5323,-5.525,-5.5247,-5.5244,-5.5242,-5.5297,-5.5301,-5.5305,0,0,0,0,0,0,0,0,0,0,0,0,0,-5.5091,-5.5094,-5.5264,-5.5265,-5.5266,-5.5322,-5.5322,-5.5323,-5.525,-5.5247,-5.5244,-5.5241,-5.5296,-5.5301,-5.5305,0,0,0,0,0,0,0,0,0,0,0,0,0,-5.5159,-5.5095,-5.5264,-5.5236,-5.5234,-5.5321,-5.5322,-5.5323,-5.5251,-5.5247,-5.5243,-5.5239,-5.5294,-5.53,-5.5306,-5.5422,0,0,-5.5324,-5.5327,0,0,0,0,0,0,0,0,-5.5155,-5.5165,-5.524,-5.5238,-5.5236,-5.5275,-5.5281,-5.5356,-5.5252,-5.5244,-5.5242,-5.5237,-5.5293,-5.5299,-5.5318,-5.5425,-5.5427,-5.5325,-5.5328,-5.5331,-5.5333,0,0,0,0,0,0,0,-5.515,-5.5162,-5.5287,-5.5241,-5.5239,-5.522,-5.5226,-5.5295,-5.529,-5.5245,-5.524,-5.5248,-5.5291,-5.5312,-5.5319,-5.5428,-5.5325,-5.533,-5.5333,-5.5336,-5.5635,-5.564,0,0,0,0,0,0,-5.5149,-5.5159,-5.5285,-5.5288,-5.5185,-5.5227,-5.5233,-5.5266,-5.5289,-5.5289,-5.5251,-5.5244,-5.5304,-5.5312,-5.532,-5.5458,-5.5331,-5.5336,-5.534,-5.5631,-5.5636,-5.5641,0,0,0,0,0,0,-5.5146,-5.5161,-5.5283,-5.5222,-5.5236,-5.5234,-5.5272,-5.5269,-5.5291,-5.5294,-5.5292,-5.5274,-5.5301,-5.5312,-5.5398,-5.5459,-5.5339,-5.5344,-5.5626,-5.5633,-5.5639,-5.5735,0,0,0,0,0,0,-5.5141,-5.516,-5.5204,-5.5224,-5.524,-5.536,-5.5276,-5.5273,-5.5301,-5.5293,-5.5315,-5.5315,-5.5299,-5.539,-5.5404,-5.5465,-5.5349,-5.562,-5.5629,-5.5637,-5.5726,-5.5744,-5.5759,0,0,0,0,0,-5.5135,-5.5228,-5.5207,-5.5222,-5.5295,-5.5363,-5.5373,-5.5354,-5.5307,-5.5351,-5.5354,-5.5314,-5.5451,-5.5399,-5.5415,-5.5478,-5.5616,-5.5626,-5.5636,-5.5719,-5.574,-5.5759,0,0,0,0,0,0,-5.5213,-5.523,-5.5207,-5.5309,-5.5336,-5.5351,-5.5406,-5.5377,-5.5416,-5.5407,-5.5381,-5.5387,-5.5479,-5.5488,-5.5429,-5.5593,-5.5526,-5.5539,-5.5583,-5.5604,-5.562,-5.5615,-5.5354,0,0,0,0,0,-5.5243,-5.5298,-5.5309,-5.5398,-5.5413,-5.5408,-5.5437,-5.5421,-5.5447,-5.5457,-5.5466,-5.5492,-5.5541,-5.5573,-5.5619,-5.5729,-5.5732,-5.578,-5.5797,-5.581,-5.5821,-5.5881,-5.5902,-5.5674,-5.5674,-5.5673,0,0,-5.5303,-5.5319,-5.5355,-5.5414,-5.5433,-5.549,-5.5417,-5.548,-5.5522,-5.5466,-5.5548,-5.5556,-5.5584,-5.5683,-5.5727,-5.5693,-5.5886,-5.5823,-5.5834,-5.5837,-5.5893,-5.5915,-5.5934,-5.568,-5.5679,-5.5678,0,0,-5.5442,-5.546,-5.5537,-5.5558,-5.5589,-5.5585,-5.5604,-5.5625,-5.5629,-5.5711,-5.5671,-5.5721,-5.5806,-5.5827,-5.585,-5.6002,-5.5967,-5.6018,-5.6103,-5.6161,-5.6179,-5.6195,-5.6248,-5.6268,-5.603,-5.603,-5.603,0,-5.5512,-5.5597,-5.5579,-5.5646,-5.5673,-5.5629,-5.5706,-5.5727,-5.5771,-5.579,-5.5753,-5.586,-5.5876,-5.5979,-5.6017,-5.6037,-5.6057,-5.6013,-5.6178,-5.6194,-5.6208,-5.6259,-5.6279,-5.6036,-5.6035,-5.6035,-5.6034,0,-5.5683,-5.5743,-5.5801,-5.5846,-5.588,-5.5952,-5.5945,-5.5982,-5.5965,-5.5965,-5.6051,-5.6069,-5.6118,-5.6142,-5.6124,-5.6244,-5.6222,-5.6182,-5.6113,-5.6236,-5.6283,-5.6303,-5.6044,-5.6042,-5.604,-5.6039,0,0,-5.5867,-5.5905,-5.5926,-5.5947,-5.598,-5.6025,-5.6096,-5.6146,-5.6178,-5.6211,-5.6269,-5.6344,-5.6308,-5.6334,-5.6319,-5.6371,-5.649,-5.6324,-5.6325,-5.6353,-5.6623,-5.6651,-5.6674,-5.6469,-5.6473,-5.6476,-5.662,0,-5.6005,-5.6128,-5.6116,-5.6232,-5.6287,-5.6248,-5.631,-5.6337,-5.6341,-5.6388,-5.6392,-5.6446,-5.6395,-5.641,-5.646,-5.6465,-5.6544,-5.6455,-5.6521,-5.6524,-5.6513,-5.6698,-5.6728,-5.6863,-5.6639,-5.6642,-5.6644,0,-5.6181,-5.6222,-5.6345,-5.6372,-5.6394,-5.645,-5.6496,-5.6542,-5.6572,-5.6572,-5.6603,-5.658,-5.6652,-5.6585,-5.6683,-5.6623,-5.665,-5.6657,-5.6662,-5.6665,-5.6589,-5.6704,-5.6905,-5.6925,-5.6673,-5.6671,-5.6669,0,-5.6302,-5.6388,-5.6473,-5.6492,-5.6526,-5.6566,-5.6582,-5.6608,-5.664,-5.668,-5.67,-5.6749,-5.6774,-5.6812,-5.6803,-5.6755,-5.6903,-5.6835,-5.6904,-5.6904,-5.6933,-5.6931,-5.7139,-5.6956,-5.6955,-5.6955,-5.6955,0,-5.6455,-5.6531,-5.6528,-5.658,-5.6665,-5.6651,-5.6735,-5.6746,-5.6771,-5.6824,-5.6795,-5.6845,-5.6832,-5.6882,-5.6876,-5.6958,-5.697,-5.6971,-5.6968,-5.6972,-5.6972,-5.6987,-5.6976,-5.696,-5.6959,-5.6958,-5.6957,0,-5.6602,-5.6603,-5.6693,-5.6719,-5.6728,-5.6789,-5.6811,-5.686,-5.6864,-5.6931,-5.6947,-5.6952,-5.701,-5.7006,-5.7071,-5.7067,-5.7168,-5.7155,-5.7158,-5.7154,-5.7222,-5.7215,-5.7445,-5.7474,-5.7274,-5.7276,-5.7278,0,-5.6698,-5.6756,-5.679,-5.6824,-5.6843,-5.6899,-5.6932,-5.6922,-5.6958,-5.6999,-5.7044,-5.71,-5.7143,-5.7238,-5.7247,-5.7297,-5.7284,-5.7361,-5.729,-5.7294,-5.7283,-5.7278,-5.7284,-5.7374,-5.7376,-5.7378,-5.7379,0,-5.6868,-5.6867,-5.6916,-5.6967,-5.7008,-5.7047,-5.7082,-5.7112,-5.7107,-5.7148,-5.7208,-5.7243,-5.7311,-5.7367,-5.7416,-5.7431,-5.7404,-5.7402,-5.742,-5.7424,-5.7422,-5.7423,-5.7193,-5.7396,-5.7394,-5.7393,-5.7392,-5.7391,-5.6991,-5.7042,-5.7074,-5.7131,-5.7157,-5.7192,-5.724,-5.7252,-5.7302,-5.7357,-5.735,-5.7417,-5.7448,-5.7511,-5.7533,-5.7585,-5.7557,-5.7583,-5.759,-5.7596,-5.7603,-5.7417,-5.7594,-5.7594,-5.7593,-5.7593,-5.7592,0,-5.7159,-5.7179,-5.7231,-5.7284,-5.7329,-5.7303,-5.7342,-5.7381,-5.7441,-5.7474,-5.7519,-5.7589,-5.7644,-5.766,-5.7713,-5.7752,-5.7741,-5.7766,-5.7761,-5.7765,-5.7625,-5.7604,-5.7774,-5.7774,-5.7774,-5.7774,-5.7773,-5.7773,-5.7251,-5.7335,-5.7339,-5.7436,-5.7456,-5.7522,-5.7547,-5.7579,-5.7606,-5.7686,-5.7732,-5.7743,-5.7769,-5.7824,-5.7874,-5.7877,-5.7897,-5.7927,-5.7925,-5.7793,-5.7775,-5.7757,-5.7737,-5.7932,-5.7932,-5.806,-5.8061,-5.8062]},{"header":{"parameterUnit":"m.s-1","parameterCategory":1,"la1":30.2991,"la2":30.254,"lo1":-89.0895,"lo2":-89.0444,"dx":0.0017,"dy":0.0017,"nx":28,"ny":28,"refTime":"2022-11-03T15:00:00:Z","depth":0,"parameterNumber":3,"parameterNumberName":"V-component_of_WINDS"},"data":[0,0,0,0,0,0,0,0,0,0,0,0,0,0,0,0,0,0,0,0,0,0,0,0,0,0,0,0,0,0,0,0,0,0,0,0,0,0,0,0,0,0,0,0,0,0,0,0,0,0,0,0,0,0,0,0,0,0,2.3428,2.3429,0,2.3485,2.3485,2.3486,2.3497,2.3496,2.3496,2.3495,2.3551,2.3553,2.3555,0,0,0,0,0,0,0,0,0,0,0,0,0,2.3329,2.3331,2.3428,2.3429,2.3429,2.3485,2.3485,2.3486,2.3497,2.3496,2.3496,2.3495,2.355,2.3553,2.3555,0,0,0,0,0,0,0,0,0,0,0,0,0,2.3377,2.3331,2.3428,2.3441,2.3443,2.3484,2.3485,2.3486,2.3497,2.3496,2.3496,2.3495,2.355,2.3552,2.3555,2.3586,0,0,2.3564,2.3565,0,0,0,0,0,0,0,0,2.3375,2.3381,2.3439,2.3441,2.3443,2.3483,2.3471,2.352,2.3497,2.3476,2.3495,2.3495,2.3529,2.3533,2.3545,2.3589,2.3591,2.3564,2.3566,2.3567,2.3568,0,0,0,0,0,0,0,2.3371,2.3379,2.345,2.344,2.3442,2.3445,2.3451,2.348,2.3505,2.3478,2.3479,2.3486,2.353,2.3542,2.3547,2.3592,2.3564,2.3566,2.3568,2.3569,2.3667,2.3668,0,0,0,0,0,0,2.3366,2.3376,2.3449,2.3452,2.3406,2.3447,2.3454,2.3471,2.3505,2.351,2.3486,2.3486,2.3538,2.3543,2.3549,2.3589,2.3567,2.357,2.3571,2.3666,2.3667,2.3668,0,0,0,0,0,0,2.3363,2.3372,2.3446,2.3414,2.3424,2.3449,2.3468,2.3472,2.3485,2.3511,2.3516,2.3495,2.3538,2.3545,2.3578,2.3591,2.3571,2.3573,2.3665,2.3666,2.3667,2.3669,0,0,0,0,0,0,2.3361,2.3371,2.3383,2.3414,2.3426,2.3474,2.3469,2.3474,2.349,2.349,2.3521,2.3525,2.3538,2.3573,2.358,2.3595,2.3576,2.3664,2.3665,2.3667,2.3668,2.367,2.3672,0,0,0,0,0,2.3357,2.338,2.3383,2.3392,2.3441,2.3475,2.3481,2.3496,2.3491,2.3503,2.3521,2.3524,2.3589,2.3576,2.3585,2.36,2.3663,2.3665,2.3667,2.3667,2.367,2.3672,0,0,0,0,0,0,2.3347,2.3384,2.3388,2.3422,2.3446,2.3477,2.3492,2.3498,2.3523,2.3522,2.3539,2.3545,2.3578,2.3592,2.3578,2.3633,2.3625,2.3629,2.3623,2.3626,2.3628,2.3624,2.3578,0,0,0,0,0,2.3349,2.3374,2.3405,2.3432,2.3443,2.3466,2.3481,2.3491,2.3516,2.3525,2.3545,2.3568,2.3594,2.3611,2.3636,2.367,2.3678,2.3685,2.3687,2.3689,2.3692,2.3714,2.3718,2.3674,2.3674,2.3674,0,0,2.3353,2.3376,2.3391,2.343,2.345,2.3476,2.3474,2.35,2.352,2.3529,2.3562,2.3578,2.3605,2.364,2.3656,2.3652,2.3706,2.3691,2.3692,2.3695,2.3716,2.372,2.3724,2.3676,2.3675,2.3675,0,0,2.3374,2.3393,2.3419,2.3439,2.3469,2.3485,2.3491,2.3522,2.3534,2.3567,2.3576,2.3599,2.3642,2.3663,2.3678,2.3711,2.3715,2.3718,2.373,2.3751,2.3754,2.3757,2.377,2.3775,2.3721,2.3721,2.3721,0,2.3374,2.3414,2.3431,2.3459,2.3477,2.3488,2.3515,2.3534,2.357,2.3582,2.3578,2.3636,2.3654,2.3695,2.3704,2.3715,2.3724,2.3715,2.3752,2.3756,2.3759,2.3772,2.3776,2.3722,2.3721,2.3721,2.3721,0,2.3414,2.3442,2.3459,2.3496,2.3516,2.3543,2.3565,2.3583,2.3592,2.3608,2.3644,2.3668,2.3699,2.371,2.3717,2.3753,2.375,2.3749,2.3742,2.3763,2.3776,2.378,2.3722,2.3722,2.3722,2.3722,0,0,2.3428,2.3477,2.3483,2.3501,2.3537,2.3559,2.3587,2.3619,2.3635,2.3661,2.3686,2.3724,2.3725,2.3743,2.3754,2.3772,2.3799,2.377,2.3771,2.3775,2.3841,2.3842,2.3847,2.3802,2.3803,2.3804,2.3839,0,2.3453,2.3505,2.3523,2.3566,2.3593,2.3606,2.3631,2.3656,2.3673,2.3698,2.3716,2.3744,2.3742,2.3753,2.3772,2.3792,2.3812,2.3789,2.3826,2.3827,2.3819,2.3853,2.3854,2.3885,2.3844,2.3845,2.3845,0,2.3489,2.3518,2.3564,2.3599,2.3611,2.3633,2.3666,2.369,2.372,2.3731,2.3753,2.3763,2.3794,2.3786,2.383,2.3814,2.383,2.3842,2.3844,2.3848,2.3838,2.3859,2.3896,2.3901,2.3853,2.3852,2.3852,0,2.3496,2.3546,2.3581,2.3596,2.3638,2.3653,2.3671,2.37,2.372,2.3748,2.3761,2.3793,2.381,2.3834,2.3853,2.3845,2.3896,2.3889,2.3907,2.3907,2.3917,2.3916,2.3957,2.3927,2.3926,2.3926,2.3926,0,2.3523,2.3551,2.3585,2.3606,2.3639,2.366,2.3692,2.371,2.3737,2.3763,2.3775,2.3799,2.3823,2.385,2.3865,2.3901,2.3908,2.3918,2.3922,2.3917,2.3916,2.3928,2.3927,2.3928,2.3927,2.3927,2.3927,0,2.3536,2.356,2.3599,2.3637,2.3647,2.3669,2.3702,2.3723,2.3742,2.3775,2.3783,2.3812,2.3845,2.3867,2.3909,2.3919,2.3958,2.3961,2.3949,2.3951,2.3968,2.3967,2.4019,2.4028,2.399,2.3991,2.3991,0,2.3551,2.3574,2.3615,2.3634,2.3653,2.3683,2.3704,2.3726,2.3747,2.3785,2.3802,2.3837,2.3865,2.3918,2.3943,2.3975,2.3979,2.3996,2.3984,2.398,2.3981,2.398,2.3983,2.3997,2.3998,2.3998,2.3998,0,2.3577,2.3589,2.3618,2.3654,2.3679,2.3707,2.3735,2.375,2.3777,2.3801,2.3836,2.3858,2.3903,2.3937,2.3973,2.3992,2.4,2.4002,2.4008,2.4004,2.3996,2.4002,2.3955,2.4,2.4,2.4,2.4,2.4,2.3592,2.3614,2.3648,2.3681,2.3706,2.3733,2.3756,2.3779,2.3809,2.3848,2.3859,2.3896,2.3928,2.3977,2.3997,2.4027,2.4025,2.4033,2.4036,2.4038,2.4039,2.3992,2.4033,2.4033,2.4033,2.4033,2.4033,0,2.362,2.3643,2.3674,2.3715,2.3742,2.3749,2.3782,2.3804,2.3837,2.3866,2.3895,2.3937,2.3971,2.4,2.4036,2.4054,2.4059,2.4063,2.4062,2.4067,2.4037,2.4029,2.4059,2.4059,2.4059,2.4059,2.4059,2.4059,2.3637,2.3675,2.3692,2.3742,2.3765,2.3803,2.3821,2.3847,2.3871,2.3917,2.3947,2.3966,2.3996,2.4035,2.4067,2.4075,2.4088,2.4091,2.41,2.4071,2.4068,2.4066,2.4058,2.4093,2.4093,2.4127,2.4127,2.4127]}]]